Regional Weather Roundup
Issued by NWS

Home | Current Version | Previous Version | Graphics & Text | Print | Product List | Glossary On
Versions: 1 2 3 4 5 6 7 8 9 10 11 12 13 14 15 16 17 18 19 20 21 22 23 24 25 26 27 28 29 30 31 32 33 34 35 36 37 38 39 40 41 42 43 44 45 46 47 48 49 50
000
ASUS43 KDMX 271604
RWRIA

WEATHER ROUNDUP FOR IOWA
NATIONAL WEATHER SERVICE DES MOINES IA
  ISSUED BY NWS QUAD CITIES IA IL
1000 AM CST FRI FEB 27 2015

NOTE: "FAIR" INDICATES FEW OR NO CLOUDS BELOW 12,000 FEET WITH NO
SIGNIFICANT WEATHER AND/OR OBSTRUCTIONS TO VISIBILITY.

* - THESE STATIONS ARE NOT NWS STATIONS...THUS NOT UNDER NWS
QUALITY CONTROL.  THEY ALSO DO NOT REPORT WEATHER SUCH
AS PRECIPITATION OR FOG.

IAZ001>003-012>014-020>022-031>034-043>046-271700-
   NORTHWEST IOWA

CITY           SKY/WX    TMP DP  RH WIND       PRES   REMARKS
CARROLL *      SUNNY      1  -6  71 NW3       30.60F
CHEROKEE *     SUNNY     -3  -6  87 SW3       30.59S
DENNISON *     SUNNY      0  -6  78 CALM      30.59S
LE MARS *      SUNNY      0  -4  85 CALM      30.60S
ORANGE CITY *  SUNNY      1  -2  85 W5        30.55S WCI  -8
SHELDON *      SUNNY      0  -4  85 SW5       30.54F WCI -10
SIOUX CITY     SUNNY      6  -2  69 W3        30.61F
SPENCER        SUNNY     -1  -7  75 W6        30.56S WCI -13
STORM LAKE *   SUNNY     -2  -8  78 W5        30.56S WCI -12
$$

IAZ055>058-069>071-079>083-090>094-271700-
   SOUTHWEST IOWA

CITY           SKY/WX    TMP DP  RH WIND       PRES   REMARKS
ATLANTIC *     SUNNY      1  -4  78 CALM      30.62S
AUDUBON *      SUNNY      3  -2  78 NW3       30.60S
CLARINDA *     MOSUNNY    7   0  72 NE5       30.66S WCI  -2
COUNCIL BLFS * SUNNY      5  -2  72 CALM      30.60S
CRESTON *      SUNNY      3  -4  72 N6        30.60S WCI  -8
HARLAN *       SUNNY      0  -2  92 CALM      30.65S
LAMONI         SUNNY      4  -5  66 VRB5      30.61F WCI  -5
RED OAK *      MOSUNNY    5   0  78 N6        30.64S WCI  -6
SHENANDOAH *   MOSUNNY    7   0  72 VRB5      30.65F WCI  -2
$$

IAZ047>049-059>061-072>074-084-271700-
   CENTRAL IOWA

CITY           SKY/WX    TMP DP  RH WIND       PRES   REMARKS
AMES           SUNNY      1  -7  68 CALM      30.63R
ANKENY *       SUNNY      1  -8  66 NW5       30.66S WCI  -8
BOONE *        SUNNY      0  -8  71 CALM      30.59S
CHARITON *     SUNNY      1  -6  71 NW5       30.63F WCI  -8
DES MOINES     MOSUNNY    4  -6  63 NW5       30.64S WCI  -5
GRINNELL *     SUNNY     -4  -8  84 NW3       30.63R
KNOXVILLE *    MOSUNNY    0  -8  71 VRB3      30.63F
MARSHALLTOWN   SUNNY     -7 -12  79 NW6       30.62R WCI -20
NEWTON *       SUNNY     -2  -9  71 CALM      30.64S
PELLA *        SUNNY      2  -4  76 NW5       30.66F WCI  -8
PERRY *          N/A      1  -4  82 NW3       30.64R
$$

IAZ004>006-015-016-023>025-035-036-271700-
   NORTH CENTRAL IOWA

CITY           SKY/WX    TMP DP  RH WIND       PRES   REMARKS
ALGONA *       SUNNY      1  -4  78 NW6       30.58S WCI -10
CLARION *      SUNNY     -8 -15  71 CALM      30.60R
ESTHERVILLE    SUNNY      0  -6  76 W6        30.55S WCI -12
FORT DODGE *   SUNNY      0  -8  71 CALM      30.60S
MASON CITY     SUNNY     -4  -9  79 W6        30.58S WCI -16
FOREST CITY *  FAIR      -2  -8  78 W3        30.57R
WEBSTER CITY * SUNNY     -4  -9  77 NW5       30.59S WCI -15
IOWA FALLS *   FAIR      -5  -9  81 W5        30.60S HAZE    WCI -16
$$

IAZ007>011-017>019-026>030-037>042-050>054-066-271700-
   NORTHEAST IOWA

CITY           SKY/WX    TMP DP  RH WIND       PRES   REMARKS
CEDAR RAPIDS   MOSUNNY   -9 -13  83 W6        30.63R WCI -22
CHARLES CITY * MOSUNNY   -6 -13  71 CALM      30.59S
CLINTON *      SUNNY     -8  -9  92 CALM      30.66R
DECORAH *      SUNNY     -2 -11  65 W3        30.56R
DUBUQUE        SUNNY     -5 -12  72 CALM      30.58R
MONTICELLO *   SUNNY     -8 -13  77 CALM      30.63R
OELWEIN *      SUNNY     -9 -15  77 NW5       30.60R WCI -21
WATERLOO       SUNNY     -5 -10  79 CALM      30.62R
$$

IAZ064-065-067-068-078-271700-
   EAST CENTRAL IOWA

CITY           SKY/WX    TMP DP  RH WIND       PRES   REMARKS
DAVENPORT      SUNNY     -6 -13  71 W8        30.65R WCI -21
IOWA CITY      SUNNY     -2  -8  76 W3        30.68R
MT. PLEASANT * SUNNY      1  -8  64 W3        30.68R
MUSCATINE *    SUNNY     -2  -9  71 CALM      30.70R
QUAD CITIES    SUNNY      2  -7  66 W6        30.66R WCI  -9
$$

IAZ062-063-075>077-085>089-095>099-271700-
   SOUTHEAST IOWA

CITY           SKY/WX    TMP DP  RH WIND       PRES   REMARKS
BURLINGTON     SUNNY     -1  -8  72 NW5       30.67R WCI -11
FAIRFIELD *    SUNNY     -2  -9  71 NW5       30.67S WCI -12
FORT MADISON * SUNNY      0  -6  78 NW6       30.67S WCI -12
KEOKUK *       SUNNY      3  -6  66 CALM      30.67S
OSKALOOSA *    FAIR      -1  -7  75 NW5       30.66S WCI -11
CENTERVILLE *  FAIR       5  -2  72 W3        30.65S
OTTUMWA        SUNNY      2  -3  80 CALM      30.66R
WASHINGTON *   SUNNY     -2  -8  78 SW6       30.67R WCI -14
$$

ABBREVIATIONS USED IN REMARKS
   TC - TEMPERATURES IN CELSIUS
  WCI - WIND CHILL INDEX
   HX - HEAT INDEX
  VSB - VISIBILITY
$$



USA.gov is the U.S. government's official web portal to all federal, state and local government web resources and services.